Skip Page Navigation
NASA JPL Caltech
NASA Logo - Jet Propulsion Laboratory + View the NASA Portal
+ Center for Near-Earth Object Studies
JPL Home Earth Solar System Stars & Galaxies Technology
JPL Solar System Dynamics
BODIES ORBITS EPHEMERIDES TOOLS PHYSICAL DATA DISCOVERY FAQ SITE MAP
IMPORTANT: The SSD Announcement email list is now available. Major changes are coming in the near future, including possible hostname and/or URL changes. To be notified of such changes, subscribe to this email list.

Please visit this page for more details.


JPL Small-Body Database Browser
Search: [ help ]  
447450 (2006 FZ44)
Classification: Main-belt Asteroid          SPK-ID: 2447450
Ephemeris | Orbit Diagram | Orbital Elements | Mission Design | Physical Parameters | Discovery Circumstances ]

[ show orbit diagram ]
Orbital Elements at Epoch 2458600.5 (2019-Apr-27.0) TDB
Reference: JPL 10 (heliocentric ecliptic J2000)
 Element Value Uncertainty (1-sigma)   Units 
e .1143834288209254 1.9577e-07  
a 2.418322092890691 3.297e-08 au
q 2.141706119912457 4.9654e-07 au
i 1.58081818512101 8.2566e-06 deg
node 29.15982251871253 0.00026101 deg
peri 138.506789146159 0.00026257 deg
M 186.6066969558362 3.0421e-05 deg
tp 2459262.106039456404
(2021-Feb-16.60603946)
0.00012338 TDB
period 1373.629604043247
3.76
2.8091e-05
7.691e-08
d
yr
n .2620793836565173 5.3595e-09 deg/d
Q 2.694938065868924 3.6741e-08 au
  Orbit Determination Parameters
   # obs. used (total)      108  
   data-arc span      6466 days (17.70 yr)  
   first obs. used      2002-02-12  
   last obs. used      2019-10-27  
   planetary ephem.      DE431  
   SB-pert. ephem.      SB431-N16  
   condition code      0  
   norm. resid. RMS      .62275  
   source      ORB  
   producer      Otto Matic  
   solution date      2019-Nov-08 16:20:53  

Additional Information
 Earth MOID = 1.14901 au 
 Jupiter MOID = 2.27437 au 
 T_jup = 3.506 
[ show covariance matrix ]

Ephemeris | Orbit Diagram | Orbital Elements | Mission Design | Physical Parameters | Discovery Circumstances ]

Physical Parameter Table
Parameter Symbol Value Units Sigma Reference Notes
absolute magnitude H 17.7   n/a MPO419205  

447450 (2006 FZ44)          Discovered 2006-Mar-24 by Mt. Lemmon Survey at Mount Lemmon
Reference: Last Updated: 2015-10-28
Ephemeris | Orbit Diagram | Orbital Elements | Mission Design | Physical Parameters | Discovery Circumstances ]
ABOUT SSD CREDITS/AWARDS PRIVACY/COPYRIGHT GLOSSARY LINKS
FirstGov
(server date/time)  
NASA Home Page
Site Manager:   Ryan S. Park
Webmaster  Alan B. Chamberlin